Location: �clusier
(49.9361°N, 2.7869°E)
Time: 08:22:06
(UTC+00:00)

Cosmos 1726 - Pass Details

Date: 16 June 2021
Orbit: 480 x 495 km, 82.5° (Epoch: 02 August)

Event Time Altitude Azimuth Distance (km) Brightness Sun altitude
Rises 20:35:21 0° 347° (NNW) 2,555 6.9 -5.0°
Reaches altitude 10° 20:37:28 10° 343° (NNW) 1,670 6.0 -5.2°
Maximum altitude 20:41:04 61° 264° (W) 555 2.6 -5.6°
Drops below altitude 10° 20:44:38 10° 183° (S) 1,658 4.4 -6.0°
Enters shadow 20:46:32 - 180° (S) 2,449 5.2 -6.2°
